Location: Peterborough
(44.3091°N, 78.3197°W)
Time: 16:16:56
(UTC-04:00)

Transit 2A Rocket - Pass Details

Date: 31 March 2023
Orbit: 584 x 914 km, 66.7° (Epoch: 04 June)

Event Time Altitude Azimuth Distance (km) Brightness Sun altitude
Rises 16:59:34 0° 331° (NNW) 3,545 8.5 27.1°
Reaches altitude 10° 17:04:00 10° 1° (N) 2,613 7.6 26.4°
Maximum altitude 17:06:22 12° 24° (NNE) 2,447 7.3 26.0°
Drops below altitude 10° 17:08:44 10° 47° (NE) 2,597 7.3 25.6°
Sets 17:13:05 0° 76° (ENE) 3,499 7.8 24.9°
